Location: Matera
(40.6670°N, 16.6000°E)
Time: 11:52:40
(UTC+01:00)

ISS - Pass Details

Date: 26 January 2019
Orbit: 403 x 411 km, 51.6° (Epoch: 18 February)

Event Time Altitude Azimuth Distance (km) Brightness Sun altitude
Rises 19:13:17 0° 281° (WNW) 2,332 1.3 -24.6°
Reaches altitude 10° 19:15:57 10° 304° (NW) 1,475 -0.3 -25.1°
Enters shadow 19:17:12 15° 326° (NW) 1,223 -1.1 -25.3°
